Regional Weather Roundup
Issued by NWS

Home | Current Version | Previous Version | Text Only | Print | Product List | Glossary Off
Versions: 1 2 3 4 5 6 7 8 9 10 11 12 13 14 15 16 17 18 19 20 21 22 23 24 25 26 27 28 29 30 31 32 33 34 35 36 37 38 39 40 41 42 43 44 45 46 47 48 49 50

000
ASUS43 KLSX 241307
RWRMO

WEATHER SUMMARY FOR MISSOURI
NATIONAL WEATHER SERVICE SPRINGFIELD MO
800 AM CDT FRI OCT 24 2014

NOTE: "FAIR" INDICATES FEW OR NO CLOUDS BELOW 12,000 FEET WITH NO
       SIGNIFICANT WEATHER AND/OR OBSTRUCTIONS TO VISIBILITY.
       CURRENT SKY AND/OR WEATHER CONDITIONS ARE NOT AVAILABLE FOR
       CHILLICOTHE AND FARMINGTON.

MOZ001>031-035>038-043-044-053-054-241400-
...NORTHERN AND WESTERN MISSOURI...

CITY           SKY/WX    TMP DP  RH WIND       PRES   REMARKS
KANSAS CTY INT FOG       57  57 100 S10       30.04F VSB 1/2
KANSAS C DTWN  PTCLDY    56  54  93 S7        30.05S FOG
LEE`S SUMMIT   CLOUDY    54  54 100 S6        30.07S FOG
ST JOSEPH      FOG       57  57 100 S8        30.03S VSB 3/4
CHILLICOTHE      N/A     57  56  96 S5        30.06F
KIRKSVILLE     FOG       55  55 100 SW10      30.08R VSB<1/4

$$
MOZ066>068-077>081-088>096-101>105-241400-
...SOUTHWEST MISSOURI...

CITY           SKY/WX    TMP DP  RH WIND       PRES   REMARKS
SPRINGFIELD    CLEAR     48  46  93 SE5       30.12R FOG
JOPLIN         MOCLDY    53  51  93 S7        30.12R

$$
MOZ032>034-039>042-045>050-055>058-069>072-241400-
...CENTRAL MISSOURI...

CITY           SKY/WX    TMP DP  RH WIND       PRES   REMARKS
COLUMBIA       CLOUDY    55  55 100 S3        30.10S FOG
JEFFERSON CITY CLOUDY    49  48  97 E3        30.10S FOG
ROLLA          FOG       48  47  96 SW7       30.10R VSB 1/4
SEDALIA        CLOUDY    58  56  93 SW9       30.10S FOG
WHITEMAN AFB   FOG       56  55  96 S8        30.08S VSB 1
OSAGE BEACH    CLOUDY    57  55  94 CALM      30.10F

$$
MOZ051-052-059>065-241400-
...EAST CENTRAL MISSOURI...

CITY           SKY/WX    TMP DP  RH WIND       PRES   REMARKS
ST LOUIS INTL  CLOUDY    57  51  80 W6        30.11R
SPIRIT OF STL  MOCLDY    52  50  93 CALM      30.10S
ST CHARLES     CLOUDY    52  50  93 E5        30.10S

$$
MOZ072>076-082>087-097>100-106>115-241400-
...SOUTH CENTRAL AND SOUTHEAST MISSOURI...

CITY           SKY/WX    TMP DP  RH WIND       PRES   REMARKS
CAPE GIRARDEAU CLOUDY    52  49  89 CALM      30.13S
FARMINGTON     MOCLDY    48  46  93 CALM      30.14R
POPLAR BLUFF   PTCLDY    49  46  90 CALM      30.13S
WEST PLAINS    CLOUDY    49  46  90 CALM      30.15R

$$



USA.gov is the U.S. government's official web portal to all federal, state and local government web resources and services.